TimeHST,TemperatureF,Dew PointF,Humidity,Sea Level PressureIn,VisibilityMPH,Wind Direction,Wind SpeedMPH,Gust SpeedMPH,PrecipitationIn,Events,Conditions,WindDirDegrees,DateUTC
12:53 AM,73.0,71.1,93,30.01,10.0,SE,12.7,17.3,0.03,Rain,Light Rain,130,2013-07-16 10:53:00
1:06 AM,71.6,69.8,94,30.02,10.0,SSE,13.8,-,0.00,Rain,Light Rain,150,2013-07-16 11:06:00
1:16 AM,71.6,71.6,100,30.02,10.0,SSE,9.2,-,0.00,Rain,Light Rain,150,2013-07-16 11:16:00
1:24 AM,71.6,71.6,100,30.02,10.0,SSE,6.9,-,0.00,,Overcast,160,2013-07-16 11:24:00
1:53 AM,72.0,71.1,97,30.00,10.0,SSE,12.7,-,0.00,,Overcast,150,2013-07-16 11:53:00
2:23 AM,71.6,69.8,94,30.01,8.0,South,8.1,-,0.01,Rain,Light Rain,170,2013-07-16 12:23:00
2:53 AM,71.1,70.0,96,30.00,10.0,South,5.8,-,0.02,Rain,Light Rain,190,2013-07-16 12:53:00
3:53 AM,71.1,70.0,96,29.99,10.0,West,8.1,-,0.00,,Overcast,280,2013-07-16 13:53:00
4:53 AM,71.1,70.0,96,29.99,10.0,WNW,6.9,-,N/A,,Overcast,290,2013-07-16 14:53:00
5:53 AM,73.9,70.0,87,29.99,10.0,East,12.7,-,N/A,,Overcast,80,2013-07-16 15:53:00
6:53 AM,75.0,70.0,84,30.00,10.0,ENE,13.8,-,N/A,,Overcast,70,2013-07-16 16:53:00
7:53 AM,77.0,70.0,79,30.02,10.0,East,13.8,-,N/A,,Overcast,90,2013-07-16 17:53:00
8:53 AM,77.0,70.0,79,30.03,10.0,East,13.8,-,N/A,,Overcast,80,2013-07-16 18:53:00
9:53 AM,78.1,69.1,74,30.03,10.0,East,12.7,-,N/A,,Overcast,90,2013-07-16 19:53:00
10:53 AM,81.0,70.0,69,30.03,10.0,East,11.5,-,N/A,,Mostly Cloudy,80,2013-07-16 20:53:00
11:53 AM,82.0,69.1,65,30.01,10.0,East,15.0,-,N/A,,Clear,80,2013-07-16 21:53:00
12:53 PM,82.0,69.1,65,30.00,10.0,ENE,12.7,-,N/A,,Partly Cloudy,70,2013-07-16 22:53:00
1:53 PM,82.0,69.1,65,29.99,10.0,ENE,13.8,-,N/A,,Partly Cloudy,70,2013-07-16 23:53:00
2:53 PM,81.0,69.1,67,29.98,10.0,ENE,11.5,-,N/A,,Partly Cloudy,70,2013-07-17 00:53:00
3:53 PM,81.0,69.1,67,29.96,10.0,ENE,12.7,-,N/A,,Partly Cloudy,70,2013-07-17 01:53:00
4:53 PM,79.0,69.1,72,29.96,10.0,ENE,13.8,-,N/A,,Mostly Cloudy,70,2013-07-17 02:53:00
5:53 PM,79.0,69.1,72,29.96,10.0,ENE,13.8,-,N/A,,Partly Cloudy,70,2013-07-17 03:53:00
6:53 PM,75.9,69.1,79,29.97,10.0,ENE,12.7,-,N/A,,Partly Cloudy,60,2013-07-17 04:53:00
7:53 PM,75.9,68.0,76,29.99,10.0,ENE,12.7,-,N/A,,Partly Cloudy,70,2013-07-17 05:53:00
8:28 PM,75.2,69.8,83,30.00,10.0,East,12.7,-,N/A,,Mostly Cloudy,80,2013-07-17 06:28:00
8:41 PM,75.2,68.0,78,30.01,10.0,East,12.7,-,N/A,,Scattered Clouds,80,2013-07-17 06:41:00
8:53 PM,75.9,69.1,79,30.00,10.0,ENE,12.7,-,N/A,,Scattered Clouds,70,2013-07-17 06:53:00
9:44 PM,75.2,69.8,83,30.02,10.0,East,13.8,-,N/A,,Mostly Cloudy,80,2013-07-17 07:44:00
9:51 PM,75.2,69.8,83,30.02,10.0,East,13.8,-,N/A,,Mostly Cloudy,80,2013-07-17 07:51:00
9:53 PM,75.9,69.1,79,30.01,10.0,East,13.8,-,N/A,,Mostly Cloudy,80,2013-07-17 07:53:00
10:53 PM,75.9,69.1,79,30.02,10.0,East,13.8,-,N/A,,Overcast,80,2013-07-17 08:53:00
11:53 PM,75.0,70.0,84,30.01,10.0,East,16.1,-,N/A,,Scattered Clouds,90,2013-07-17 09:53:00